| time (UTC) | temp F | wind direction | speed MPH | gust MPH | rain 1hr in | rain 24hr in | rain mn in | humidity % | barometer mb |
| 20260504191502 | 70 | 0.0 | 0.0 | 0.00 | 0.00 | 0.00 | 54 | 992.1 | |
| 20260504190002 | 70 | 0.0 | 0.0 | 0.00 | 0.00 | 0.00 | 52 | 992.0 | |
| 20260504184502 | 71 | 0.0 | 0.0 | 0.00 | 0.00 | 0.00 | 50 | 991.8 | |
| 20260504183002 | 73 | 0.0 | 0.0 | 0.00 | 0.00 | 0.00 | 47 | 991.8 | |
| 20260504181502 | 74 | 0.0 | 0.0 | 0.00 | 0.00 | 0.00 | 45 | 991.7 | |
| 20260504180002 | 75 | 0.0 | 0.0 | 0.00 | 0.00 | 0.00 | 42 | 991.6 | |
| 20260504174502 | 76 | 0.0 | 0.0 | 0.00 | 0.00 | 0.00 | 41 | 991.5 | |
| 20260504173002 | 77 | 0.0 | 0.0 | 0.00 | 0.00 | 0.00 | 40 | 991.6 | |
| 20260504171502 | 77 | 0.0 | 0.0 | 0.00 | 0.00 | 0.00 | 39 | 991.6 | |
| 20260504081502 | 80 | 0.0 | 0.0 | 0.00 | 0.00 | 0.00 | 36 | 994.7 | |
| 20260504050002 | 60 | 0.0 | 0.0 | 0.00 | 0.00 | 0.00 | 51 | 994.5 | |
| 20260504044502 | 60 | 0.0 | 0.0 | 0.00 | 0.00 | 0.00 | 51 | 994.3 | |
| 20260504043002 | 59 | 0.0 | 0.0 | 0.00 | 0.00 | 0.00 | 51 | 994.4 | |
| 20260504041502 | 58 | 0.0 | 0.0 | 0.00 | 0.00 | 0.00 | 53 | 994.6 | |
| 20260504040002 | 57 | 0.0 | 0.0 | 0.00 | 0.00 | 0.00 | 54 | 994.2 | |
| 20260504034502 | 56 | 0.0 | 0.0 | 0.00 | 0.00 | 0.00 | 57 | 994.1 | |
| 20260504033002 | 54 | 0.0 | 0.0 | 0.00 | 0.00 | 0.00 | 59 | 994.1 | |
| 20260504031502 | 53 | 0.0 | 0.0 | 0.00 | 0.00 | 0.00 | 60 | 994.0 | |
| 20260504030002 | 54 | 0.0 | 0.0 | 0.00 | 0.00 | 0.00 | 60 | 993.8 | |
| 20260504024502 | 54 | 0.0 | 0.0 | 0.00 | 0.00 | 0.00 | 60 | 993.8 | |
| 20260504023002 | 54 | 0.0 | 0.0 | 0.00 | 0.00 | 0.00 | 61 | 993.8 | |
| 20260504021502 | 54 | 0.0 | 0.0 | 0.00 | 0.00 | 0.00 | 61 | 993.8 | |
| 20260504020002 | 54 | 0.0 | 0.0 | 0.00 | 0.00 | 0.00 | 61 | 993.7 | |
| 20260504014503 | 55 | 0.0 | 0.0 | 0.00 | 0.00 | 0.00 | 60 | 993.7 | |
| 20260504013003 | 55 | 0.0 | 0.0 | 0.00 | 0.00 | 0.00 | 61 | 993.6 | |
| 20260504011502 | 55 | 0.0 | 0.0 | 0.00 | 0.00 | 0.00 | 62 | 993.7 | |
| 20260504010002 | 55 | 0.0 | 0.0 | 0.00 | 0.00 | 0.00 | 62 | 993.8 | |
| 20260504004502 | 55 | 0.0 | 0.0 | 0.00 | 0.00 | 0.00 | 63 | 993.9 | |
| 20260504003002 | 55 | 0.0 | 0.0 | 0.00 | 0.00 | 0.00 | 63 | 993.8 | |
| 20260504001502 | 55 | 0.0 | 0.0 | 0.00 | 0.00 | 0.00 | 63 | 994.0 | |
| 20260504000002 | 56 | 0.0 | 0.0 | 0.00 | 0.00 | 0.00 | 63 | 993.8 | |
| 20260503234502 | 56 | 0.0 | 0.0 | 0.00 | 0.00 | 0.00 | 63 | 994.0 | |
| 20260503233002 | 56 | 0.0 | 0.0 | 0.00 | 0.00 | 0.00 | 62 | 994.1 | |
| 20260503231502 | 56 | 0.0 | 0.0 | 0.00 | 0.00 | 0.00 | 63 | 994.2 | |
| 20260503230003 | 57 | 0.0 | 0.0 | 0.00 | 0.00 | 0.00 | 62 | 994.3 | |
| 20260503224502 | 57 | 0.0 | 0.0 | 0.00 | 0.00 | 0.00 | 61 | 994.3 | |
| 20260503223002 | 58 | 0.0 | 0.0 | 0.00 | 0.00 | 0.00 | 60 | 994.3 | |
| 20260503221502 | 59 | 0.0 | 0.0 | 0.00 | 0.00 | 0.00 | 58 | 994.5 | |
| 20260503220002 | 59 | 0.0 | 0.0 | 0.00 | 0.00 | 0.00 | 57 | 994.5 | |
| 20260503214502 | 60 | 0.0 | 0.0 | 0.00 | 0.00 | 0.00 | 55 | 994.5 | |
| 20260503213002 | 60 | 0.0 | 0.0 | 0.00 | 0.00 | 0.00 | 55 | 994.5 | |
| 20260503211502 | 60 | 0.0 | 0.0 | 0.00 | 0.00 | 0.00 | 55 | 994.5 | |
| 20260503210002 | 61 | 0.0 | 0.0 | 0.00 | 0.00 | 0.00 | 55 | 994.4 | |
| 20260503204503 | 61 | 0.0 | 0.0 | 0.00 | 0.00 | 0.00 | 55 | 994.5 |